#timestamp,LO_Frequency,Hit,StdDev 
1585666815.4,286047002.6,N
1585666835.2,286047000.9,N
1585666855.1,286047000.0,N
1585666856.0,286047000.0,N
1585666875.8,286047002.5,N
1585666895.7,286047002.7,N
1585666915.5,286047003.4,N
1585666935.3,286047002.2,N
1585666955.2,286047001.1,N
1585666975.0,286047011.9,Y
1585666975.9,286047001.0,P
1585666995.8,286046999.7,N
1585667015.6,286047002.0,N
1585667035.4,286047002.4,N
1585667055.3,286047001.0,N
1585667075.1,286047000.3,N
1585667095.9,286047000.9,N
1585667115.7,286046999.7,N
1585667135.5,286047002.3,N
1585667155.4,286047003.4,Y
1585667175.2,286047003.1,P
1585667195.1,286047000.1,N
1585667196.0,286047000.1,N
1585667215.8,286047000.7,N
1585667235.6,286047000.2,N
1585667255.6,286046998.6,N
1585667275.4,286046998.5,N
1585667295.2,286046999.2,N
1585667315.1,286046999.3,N
1585667316.0,286046999.3,N
1585667335.8,286046999.3,N
1585667355.7,286046996.5,N
1585667375.5,286046997.1,N
1585667395.3,286046999.5,N
1585667415.2,286046999.5,N
1585667435.0,286046995.2,Y
1585667435.9,286046995.2,P
1585667455.8,286046996.5,N
1585667475.6,286046996.5,N
1585667495.4,286047000.7,N
1585667515.3,286047000.0,N
1585667535.1,286047011.9,Y
1585667555.9,286047003.4,P
1585667575.7,286047004.0,N
1585667595.5,286047001.4,N
1585667615.4,286047001.7,N
1585667635.2,286047001.6,N
1585667655.0,286047002.2,N
1585667655.9,286047002.2,N
1585667675.8,286047003.1,N
1585667695.6,286047003.6,N
1585667715.5,286047001.6,N
1585667735.3,286047000.0,N
1585667755.1,286047002.6,N
1585667775.9,286047000.5,N
1585667795.7,286047001.5,N
1585667815.6,286047002.0,N
1585667835.4,286047001.5,N
1585667855.2,286047003.5,N
1585667875.1,286047002.0,N
1585667876.0,286047002.0,N
1585667895.8,286047000.8,N
1585667915.6,286047000.1,N
1585667935.5,286047000.8,N
1585667955.3,286047001.2,N
1585667975.2,286047002.5,N
1585667995.9,286047002.5,N
1585668015.7,286046999.7,N
1585668035.6,286047000.3,N
1585668055.4,286046996.6,N
1585668075.3,286046999.0,N
1585668095.1,286047000.9,N
1585668096.0,286047000.9,N
1585668115.8,286047001.0,N
1585668135.7,286047001.0,N
1585668155.5,286047002.4,N
1585668175.3,286046999.9,N
1585668195.2,286047000.1,N
1585668215.0,286046999.8,N
1585668215.9,286046999.8,N
1585668235.8,286046999.9,N
1585668255.6,286047001.2,N
1585668275.4,286047002.8,N
1585668295.3,286046999.7,N
1585668315.1,286047006.0,Y
1585668335.9,286047004.4,P
1585668355.7,286047003.4,N
1585668375.5,286047002.3,N
1585668395.4,286047000.6,N
1585668415.2,286047000.8,N
1585668435.0,286046998.8,N
1585668435.9,286046998.8,N
1585668455.8,286047002.7,N
1585668475.6,286047001.0,N
1585668495.5,286047000.8,N
1585668515.3,286047001.2,N
1585668535.1,286046999.8,N
1585668555.9,286047002.5,N
1585668575.7,286046999.8,N
1585668595.6,286047002.1,N
1585668615.4,286046999.9,N
1585668635.2,286046998.9,N
1585668655.1,286047001.2,N
1585668656.0,286047001.2,N
1585668675.8,286047000.5,N
1585668695.7,286047002.7,N
1585668715.5,286046998.5,N
1585668735.3,286047001.0,N
1585668755.2,286046999.9,N
1585668775.0,286047000.8,N
1585668775.9,286047000.8,N
1585668795.7,286047000.4,N
1585668815.6,286047000.9,N
1585668835.4,286047001.0,N
1585668855.3,286046996.8,N
1585668875.1,286046997.3,N
1585668876.0,286046997.3,N
1585668895.8,286046996.6,N
1585668915.7,286046996.5,N
1585668935.5,286046997.1,N
1585668955.4,286046995.3,N
1585668975.2,286046997.9,N
1585668995.0,286046996.2,N
1585668995.9,286046996.2,N
1585669015.8,286046996.0,N
1585669035.6,286046995.4,N
1585669055.5,286046994.9,N
1585669075.3,286046997.6,N
1585669095.1,286046995.7,N
1585669115.9,286046995.8,N
1585669135.7,286046997.9,N
1585669155.6,286046995.7,N
1585669175.4,286046995.1,N
1585669195.2,286046997.6,N
1585669215.1,286046995.5,N
1585669216.0,286046995.5,N
1585669235.8,286046995.2,N
1585669255.7,286046995.8,N
1585669275.5,286046996.2,N
1585669295.3,286046993.9,Y
1585669315.2,286046999.2,P
1585669335.0,286046998.9,N
1585669335.9,286046998.9,N
1585669355.8,286047000.3,N
1585669375.6,286046998.1,N
1585669395.4,286046999.1,N
1585669415.3,286046998.6,N
1585669435.1,286046998.9,N
1585669455.8,286046998.3,N
1585669475.7,286046998.8,N
1585669495.5,286046998.2,N
1585669515.4,286047000.6,N
1585669535.2,286046999.2,N
1585669555.0,286046997.0,Y
1585669555.9,286046997.0,P
1585669575.8,286046999.5,N
1585669595.6,286046999.2,N
1585669615.4,286046999.3,N
1585669635.3,286046999.0,N
1585669655.1,286046998.3,N
1585669675.9,286047001.1,N
1585669695.7,286046998.4,N
1585669715.5,286046998.9,N
1585669735.4,286046996.7,Y
1585669755.2,286047000.6,P
1585669775.1,286046999.0,N
1585669776.0,286046999.0,N
1585669795.8,286046998.2,N
1585669815.6,286046998.5,N
1585669835.5,286047001.0,N
1585669855.3,286046998.1,N
1585669875.1,286046998.5,N
1585669895.9,286047000.1,N
1585669915.7,286046999.7,N
1585669935.6,286047001.6,N
1585669955.4,286047004.0,Y
1585669975.2,286047004.9,P
1585669995.1,286047003.6,N
1585669996.0,286047003.6,N
1585670015.8,286047002.2,N
1585670035.7,286047001.8,N
1585670055.5,286047000.0,N
1585670075.3,286047000.2,N
1585670095.2,286047002.5,N
1585670115.9,286047000.5,N
1585670135.7,286047000.5,N
1585670155.6,286047000.6,N
1585670175.4,286047001.0,N
1585670195.3,286047000.6,N
1585670215.1,286047001.0,N
1585670216.0,286047001.0,N
1585670235.8,286046999.9,N
1585670255.7,286047000.2,N
1585670275.5,286047000.0,N
1585670295.4,286047001.6,N
1585670315.2,286047001.8,N
1585670335.0,286047001.3,N
1585670335.9,286047001.3,N
1585670355.8,286047001.4,N
1585670375.6,286047001.9,N
1585670395.4,286047004.2,Y
